Location: Six Mile Lake
(44.9000°N, 79.7170°W)
Time: 09:36:27
(UTC-04:00)

AO-109 - Pass Details

Date: 03 July 2022
Orbit: 469 x 506 km, 60.7° (Epoch: 14 August)

Event Time Altitude Azimuth Distance (km) Brightness Sun altitude
Exits shadow 04:05:30 14° 176° (S) 1,424 ? -12.7°
Maximum altitude 04:08:02 28° 122° (ESE) 932 ? -12.4°
Drops below altitude 10° 04:11:15 10° 63° (ENE) 1,667 ? -12.1°
Sets 04:13:37 0° 51° (NE) 2,560 ? -11.8°
